Zurück zum Katalog

STARLINK-36106

AktivKommunikationVLEO
NORAD 67018·PAYLOAD·🇺🇸 United States

Gestartet Dec 10, 2025 von Vandenberg Space Force Base

Loading…

Nächste Überflüge (nächste 24 Stunden)

TLE

AktuellSource: CelesTrak SupGP

Epoche: Sep 14, 2026, 21:45 UTC

1 67018C 25293R   26257.90673611 -.00039555  00000+0 -33152-2 0  2579
2 67018  70.0021 337.2448 0003509 270.9344  97.3443 14.98345329    10

Verfolge STARLINK-36106 in Echtzeit mit AllMySat

Download on the App Store